{"data":{"norad_id":60263,"epoch":"2026-05-25T03:19:11.235936Z","epoch_age_seconds":73130,"freshness":"FRESH","line1":"1 60263U 24131J   26145.13832449  .00003950  00000+0  13891-3 0  9991","line2":"2 60263  53.1614  57.3037 0001345  86.1070 274.0085 15.31717547103471","mean_motion":15.31717547,"eccentricity":0.0001345,"inclination_deg":53.1614,"raan_deg":57.3037,"arg_perigee_deg":86.107,"mean_anomaly_deg":274.0085,"bstar":0.00013891,"rev_number":10347,"period_min":94.012110967872,"perigee_km":469.76652211039,"apogee_km":471.60885595174,"semimajor_km":6848.8246890311,"source":"CELESTRAK","updated_at":"2026-05-25T13:38:19.199886Z"}}